AF6GL Weather Reports


Display with metric or nautical units.
time (UTC)temp
F
wind
direction
speed
MPH
gust
MPH
rain 1hr
in
rain 24hr
in
rain mn
in
humidity
%
barometer
mb
20170817172611 73 236 2.0 6.0 0.00 0.00 0.00 70 1014.8
20170817171616 72 293 1.0 4.0 0.00 0.00 0.00 71 1014.8
20170817170607 71 245 3.0 7.0 0.00 0.00 0.00 72 1014.8
20170817165607 72 244 1.0 5.0 0.00 0.00 0.00 73 1014.8
20170817164610 70 109 1.0 4.0 0.00 0.00 0.00 76 1014.8
20170817163609 69 307 1.0 3.0 0.00 0.00 0.00 78 1014.8
20170817162609 69 354 2.0 6.0 0.00 0.00 0.00 78 1014.9
20170817161609 68 234 1.0 3.0 0.00 0.00 0.00 79 1014.9
20170817160608 68 311 1.0 4.0 0.00 0.00 0.00 80 1014.9
20170817155609 68 278 1.0 4.0 0.00 0.00 0.00 81 1014.8
20170817154609 68 303 0.0 1.0 0.00 0.00 0.00 79 1014.8
20170817153607 67 292 0.0 1.0 0.00 0.00 0.00 80 1014.7
20170817152609 67 283 0.0 1.0 0.00 0.00 0.00 79 1014.8
20170817151607 66 55 0.0 2.0 0.00 0.00 0.00 82 1014.8
20170817150607 64 11 1.0 3.0 0.00 0.00 0.00 83 1014.7
20170817145607 63 44 2.0 4.0 0.00 0.00 0.00 85 1014.7
20170817144612 62 346 2.0 6.0 0.00 0.00 0.00 86 1014.7
20170817143607 61 60 1.0 4.0 0.00 0.00 0.00 87 1014.6
20170817142605 60 54 1.0 5.0 0.00 0.00 0.00 88 1014.5
20170817141603 59 63 0.0 2.0 0.00 0.00 0.00 90 1014.5
20170817140604 58 74 1.0 4.0 0.00 0.00 0.00 91 1014.4
20170817135603 57 58 2.0 5.0 0.00 0.00 0.00 92 1014.4
20170817134604 56 65 2.0 4.0 0.00 0.00 0.00 92 1014.3
20170817133605 56 86 2.0 5.0 0.00 0.00 0.00 93 1014.0
20170817132603 56 60 2.0 5.0 0.00 0.00 0.00 93 1014.0
20170817131604 56 75 0.0 1.0 0.00 0.00 0.00 93 1013.8
20170817130603 56 68 0.0 2.0 0.00 0.00 0.00 93 1013.7
20170817125607 56 69 0.0 1.0 0.00 0.00 0.00 93 1013.7
20170817124603 56 69 0.0 0.0 0.00 0.00 0.00 93 1013.7
20170817123604 56 104 0.0 0.0 0.00 0.00 0.00 93 1013.6
20170817121603 56 105 1.0 2.0 0.00 0.00 0.00 93 1013.2
20170817120604 56 60 1.0 3.0 0.00 0.00 0.00 93 1013.1
20170817115604 56 63 0.0 2.0 0.00 0.00 0.00 93 1013.0
20170817114605 56 72 0.0 1.0 0.00 0.00 0.00 92 1013.0
20170817113605 56 78 0.0 0.0 0.00 0.00 0.00 92 1013.0
20170817112605 57 94 0.0 1.0 0.00 0.00 0.00 92 1013.1
20170817111601 57 77 0.0 2.0 0.00 0.00 0.00 92 1013.0
20170817110603 57 86 0.0 2.0 0.00 0.00 0.00 92 1012.9
20170817105601 57 47 1.0 3.0 0.00 0.00 0.00 92 1013.0
20170817104603 57 61 0.0 4.0 0.00 0.00 0.00 92 1013.1
20170817103600 57 77 0.0 2.0 0.00 0.00 0.00 92 1013.1
20170817102601 57 72 1.0 3.0 0.00 0.00 0.00 92 1013.1
20170817101601 58 67 0.0 4.0 0.00 0.00 0.00 92 1013.1
20170817100602 58 58 0.0 2.0 0.00 0.00 0.00 91 1013.1
20170817095601 58 68 1.0 4.0 0.00 0.00 0.00 91 1013.0
20170817094559 58 55 1.0 3.0 0.00 0.00 0.00 91 1013.0
20170817093558 58 54 0.0 3.0 0.00 0.00 0.00 91 1013.1
20170817092600 58 64 0.0 1.0 0.00 0.00 0.00 91 1013.1
20170817091557 58 80 1.0 3.0 0.00 0.00 0.00 91 1013.2
20170817090557 58 56 1.0 4.0 0.00 0.00 0.00 90 1013.3
20170817085555 59 54 1.0 3.0 0.00 0.00 0.00 91 1013.3
20170817084556 59 61 0.0 2.0 0.00 0.00 0.00 90 1013.3
20170817083553 59 63 1.0 2.0 0.00 0.00 0.00 90 1013.3
20170817082552 59 69 1.0 2.0 0.00 0.00 0.00 90 1013.3
20170817081552 59 84 0.0 0.0 0.00 0.00 0.00 90 1013.2
20170817080615 59 124 0.0 0.0 0.00 0.00 0.00 90 1013.2
20170817075550 60 124 0.0 0.0 0.00 0.00 0.00 90 1013.3
20170817074549 60 127 0.0 0.0 0.00 0.00 0.00 90 1013.2
20170817073551 60 127 0.0 0.0 0.00 0.00 0.00 90 1013.2
20170817072549 60 96 0.0 0.0 0.00 0.00 0.00 88 1013.2
20170817071551 61 96 0.0 0.0 0.00 0.00 0.00 88 1013.2
20170817070549 61 104 0.0 0.0 0.00 0.00 0.00 88 1013.1
20170817065550 61 75 0.0 2.0 0.00 0.00 0.00 88 1013.1
20170817064547 61 68 0.0 0.0 0.00 0.00 0.00 88 1013.1
20170817063556 61 68 0.0 0.0 0.00 0.00 0.00 88 1013.1
20170817062548 61 26 0.0 0.0 0.00 0.00 0.00 89 1013.1
20170817061553 61 129 0.0 0.0 0.00 0.00 0.00 88 1013.1
20170817060553 62 129 0.0 0.0 0.00 0.00 0.00 89 1013.0
20170817055549 62 129 0.0 0.0 0.00 0.00 0.00 88 1013.0
20170817054545 62 122 0.0 0.0 0.00 0.00 0.00 88 1012.9
20170817053544 62 131 0.0 1.0 0.00 0.00 0.00 88 1012.9
20170817052543 62 141 0.0 1.0 0.00 0.00 0.00 87 1012.9
20170817051551 63 155 0.0 0.0 0.00 0.00 0.00 87 1012.9
20170817050547 63 156 0.0 0.0 0.00 0.00 0.00 86 1012.9
20170817045544 63 156 0.0 0.0 0.00 0.00 0.00 86 1012.8
20170817044552 64 156 0.0 0.0 0.00 0.00 0.00 85 1012.7
20170817043546 64 174 0.0 1.0 0.00 0.00 0.00 85 1012.7
20170817042538 64 216 0.0 1.0 0.00 0.00 0.00 85 1012.7
20170817041540 65 216 0.0 1.0 0.00 0.00 0.00 84 1012.6
20170817040538 65 212 0.0 2.0 0.00 0.00 0.00 84 1012.5
20170817035541 65 226 0.0 1.0 0.00 0.00 0.00 84 1012.4
20170817034540 65 203 0.0 2.0 0.00 0.00 0.00 83 1012.3
20170817033540 65 209 0.0 2.0 0.00 0.00 0.00 83 1012.2
20170817032551 66 246 0.0 3.0 0.00 0.00 0.00 82 1012.1
20170817031542 66 231 1.0 4.0 0.00 0.00 0.00 82 1012.0
20170817030537 66 225 1.0 5.0 0.00 0.00 0.00 81 1011.9
20170817025537 66 311 2.0 4.0 0.00 0.00 0.00 81 1011.9
20170817024537 67 297 3.0 6.0 0.00 0.00 0.00 80 1011.8
20170817023536 67 258 2.0 5.0 0.00 0.00 0.00 79 1011.6
20170817022536 68 219 3.0 6.0 0.00 0.00 0.00 77 1011.5
20170817021537 68 257 3.0 6.0 0.00 0.00 0.00 76 1011.5
20170817020538 69 275 4.0 10.0 0.00 0.00 0.00 75 1011.4
20170817015536 69 297 4.0 7.0 0.00 0.00 0.00 75 1011.4
20170817014537 70 234 3.0 7.0 0.00 0.00 0.00 73 1011.3
20170817013536 70 267 4.0 9.0 0.00 0.00 0.00 73 1011.3
20170817012536 70 243 5.0 9.0 0.00 0.00 0.00 74 1011.3
20170817011537 70 287 5.0 9.0 0.00 0.00 0.00 73 1011.3
20170817010536 71 283 6.0 10.0 0.00 0.00 0.00 73 1011.3
20170817005534 71 275 6.0 10.0 0.00 0.00 0.00 71 1011.3
20170817004534 71 271 5.0 10.0 0.00 0.00 0.00 71 1011.4
20170817003534 71 231 6.0 10.0 0.00 0.00 0.00 70 1011.4
20170817002534 71 278 6.0 11.0 0.00 0.00 0.00 70 1011.5
20170817001536 72 264 6.0 11.0 0.00 0.00 0.00 71 1011.5
20170817000534 72 266 6.0 11.0 0.00 0.00 0.00 69 1011.5
20170816235535 72 266 7.0 12.0 0.00 0.00 0.00 69 1011.6
20170816234538 72 280 7.0 12.0 0.00 0.00 0.00 69 1011.7
20170816233535 73 239 8.0 15.0 0.00 0.00 0.00 68 1011.7
20170816232535 73 264 7.0 12.0 0.00 0.00 0.00 67 1011.7
20170816231534 73 322 8.0 13.0 0.00 0.00 0.00 66 1011.7
20170816230534 73 279 7.0 15.0 0.00 0.00 0.00 65 1011.7
20170816225532 73 293 7.0 12.0 0.00 0.00 0.00 64 1011.8
20170816224532 75 233 6.0 12.0 0.00 0.00 0.00 63 1011.7
20170816223531 74 213 7.0 13.0 0.00 0.00 0.00 64 1011.8
20170816222536 75 297 6.0 13.0 0.00 0.00 0.00 65 1011.8
20170816221532 74 293 7.0 15.0 0.00 0.00 0.00 66 1011.9
20170816220528 74 334 8.0 13.0 0.00 0.00 0.00 65 1011.9
20170816215530 74 273 8.0 15.0 0.00 0.00 0.00 65 1011.9
20170816214529 74 252 5.0 11.0 0.00 0.00 0.00 63 1012.1
20170816213524 74 288 5.0 11.0 0.00 0.00 0.00 62 1012.2
20170816212524 74 258 7.0 13.0 0.00 0.00 0.00 63 1012.3
20170816211525 75 269 6.0 11.0 0.00 0.00 0.00 61 1012.4
20170816210524 74 257 8.0 14.0 0.00 0.00 0.00 63 1012.5
20170816205522 75 298 7.0 13.0 0.00 0.00 0.00 61 1012.5
20170816204522 75 257 8.0 13.0 0.00 0.00 0.00 60 1012.5
20170816203526 75 273 8.0 15.0 0.00 0.00 0.00 59 1012.6
20170816202522 75 299 7.0 13.0 0.00 0.00 0.00 60 1012.6
20170816201522 74 285 7.0 12.0 0.00 0.00 0.00 59 1012.7
20170816200523 75 290 7.0 13.0 0.00 0.00 0.00 60 1012.8
20170816195521 74 274 8.0 13.0 0.00 0.00 0.00 61 1012.7
20170816194519 74 288 7.0 11.0 0.00 0.00 0.00 61 1012.8
20170816193517 75 288 5.0 11.0 0.00 0.00 0.00 60 1012.9
20170816192516 74 247 6.0 10.0 0.00 0.00 0.00 59 1013.0
20170816191514 74 274 6.0 13.0 0.00 0.00 0.00 60 1013.0
20170816190515 74 284 6.0 11.0 0.00 0.00 0.00 60 1013.2
20170816185515 74 282 4.0 10.0 0.00 0.00 0.00 61 1013.2
20170816184516 74 274 4.0 10.0 0.00 0.00 0.00 61 1013.2
20170816183514 74 296 5.0 10.0 0.00 0.00 0.00 61 1013.3
20170816182515 74 311 4.0 11.0 0.00 0.00 0.00 60 1013.4
20170816181515 73 318 5.0 9.0 0.00 0.00 0.00 61 1013.4
20170816180513 73 295 3.0 10.0 0.00 0.00 0.00 60 1013.4
20170816175512 73 296 3.0 10.0 0.00 0.00 0.00 59 1013.6
20170816174512 73 200 4.0 8.0 0.00 0.00 0.00 60 1013.6
20170816173515 73 252 3.0 7.0 0.00 0.00 0.00 61 1013.7